Regional Weather Roundup
Issued by NWS

Home | Current Version | Previous Version | Graphics & Text | Print | Product List | Glossary On
Versions: 1 2 3 4 5 6 7 8 9 10 11 12 13 14 15 16 17 18 19 20 21 22 23 24 25 26 27 28 29 30 31 32 33 34 35 36 37 38 39 40 41 42 43 44 45 46 47 48 49 50
817
ASUS43 KTOP 230408
RWRKS

WEATHER ROUNDUP FOR KANSAS
NATIONAL WEATHER SERVICE GOODLAND KS
1000 PM CST THU FEB 22 2018

NOTE:  "FAIR" INDICATES FEW OR NO CLOUDS BELOW 12,000 FEET WITH NO
SIGNIFICANT WEATHER AND/OR OBSTRUCTIONS TO VISIBILITY.

KSZ001>006-013>018-027>032-041>047-230500-
NORTHWEST KANSAS

CITY           SKY/WX    TMP DP  RH WIND       PRES   REMARKS
GOODLAND       CLEAR     14  12  92 SE3       30.07R
HAYS           CLOUDY    28  27  96 N9        30.16R FOG
HILL CITY      CLOUDY    26  25  96 CALM      30.16R
RUSSELL        CLOUDY    31  30  96 N7        30.14S FOG
$$

KSZ061>065-074>080-084>089-230500-
SOUTHWEST KANSAS

CITY           SKY/WX    TMP DP  RH WIND       PRES   REMARKS
DODGE CITY     FOG       30  29  96 SE8       30.09R VSB 1/4
ELKHART        CLEAR     30  26  86 S3        30.02R
GARDEN CITY    CLOUDY    30  29  96 E7        30.07R
GREAT BEND     CLOUDY    30  29  96 NE5       30.15S FOG
LIBERAL        CLEAR     28  27  96 S10       30.06R WCI  19
PRATT          FOG       30  29  96 S3        30.15R VSB 3/4
$$

KSZ066>073-081>083-090>101-230500-
SOUTHEAST KANSAS

CITY           SKY/WX    TMP DP  RH WIND       PRES   REMARKS
CHANUTE        CLOUDY    34  33  96 W3        30.20R FOG
COFFEYVILLE    CLOUDY    35  35 100 W5        30.22R FOG
HUTCHINSON     CLOUDY    31  31 100 SW5       30.17S FOG
MEDICINE LODGE   N/A     30  29  96 S3        30.16S
NEWTON         CLOUDY   N/A N/A N/A SW6       30.17R HAZE
PARSONS        CLOUDY    34  34 100 W3        30.22R FOG
WICHITA INTL   CLOUDY    32  32 100 W6        30.17S
WICHITA JABRA  CLOUDY    31  31 100 SW6       30.17R FOG
WICHITA MCCONL CLOUDY    32  31  99 CALM      30.17R
WINFIELD       CLOUDY    32  32 100 SW6       30.20R FOG
$$

KSZ007>012-019>026-033>040-048>060-102>105-230500-
NORTHEAST KANSAS

CITY           SKY/WX    TMP DP  RH WIND       PRES   REMARKS
CONCORDIA      CLOUDY    30  30 100 NW6       30.17S FOG
EMPORIA        CLOUDY    32  31  96 CALM      30.17R FOG
LAWRENCE       FOG       33  33 100 W3        30.20R VSB 1
MANHATTAN      CLOUDY    33  32  96 CALM      30.18R FOG
MARYSVILLE     DRIZZLE   32  32 100 W3        30.17R
OLATHE IND     CLOUDY    32  32 100 W7        30.19R FOG
OLATHE EXE     CLOUDY    32  32 100 W6        30.18R FOG
SALINA         CLOUDY    33  32  96 CALM      30.19S FOG
TOPEKA BILLARD CLOUDY    33  33 100 NE3       30.18S FOG
TOPEKA FORBES  CLOUDY    33  33 100 CALM      30.17F FOG
$$




USA.gov is the U.S. government's official web portal to all federal, state and local government web resources and services.